Location: Hoyos del Collado
(40.3594°N, 5.2003°W)
Time: 02:31:53
(UTC+00:00)

Tiangong - Pass Details

Date: 18 April 2024
Orbit: 370 x 373 km, 41.5° (Epoch: 25 May)

Event Time Altitude Azimuth Distance (km) Brightness Sun altitude
Rises 21:25:06 0° 264° (W) 2,249 2.3 -24.5°
Reaches altitude 10° 21:27:11 10° 266° (W) 1,392 1.2 -24.7°
Enters shadow 21:28:10 19° 268° (W) 997 0.4 -24.9°
